Regional Weather Roundup
Issued by NWS

Home | Current Version | Previous Version | Graphics & Text | Print | Product List | Glossary On
Versions: 1 2 3 4 5 6 7 8 9 10 11 12 13 14 15 16 17 18 19 20 21 22 23 24 25 26 27 28 29 30 31 32 33 34 35 36 37 38 39 40 41 42 43 44 45 46 47 48 49 50
000
ASUS43 KMPX 300501
RWRMN
WEATHER ROUNDUP FOR MINNESOTA
NATIONAL WEATHER SERVICE TWIN CITIES/CHANHASSEN MN
1200 AM CDT SUN APR 30 2017


NOTE: "FAIR" INDICATES FEW OR NO CLOUDS BELOW 12,000 FEET WITH NO
SIGNIFICANT WEATHER AND/OR OBSTRUCTIONS TO VISIBILITY. N/A MEANS
CURRENT SKY AND/OR WEATHER CONDITIONS ARE NOT AVAILABLE.

MNZ060>063-068>070-300600-
   Twin Cities Metro

CITY           SKY/WX    TMP DP  RH WIND       PRES   REMARKS
TWIN CITIES    CLOUDY    48  25  40 NE15G22   30.18F
ST PAUL        CLOUDY    48  27  44 NE12      30.20F
CRYSTAL        CLOUDY    47  22  37 NE8       30.18F
LAKEVILLE      CLOUDY    46  28  49 NE15      30.15F
EDEN PRAIRIE   MOCLDY    50  25  37 NE10      30.16F
SOUTH ST PAUL  CLOUDY    48  26  43 NE8G16    30.18S
LAKE ELMO      FAIR      45  28  53 NE12      30.19F
$$
MNZ001>005-007-008-013>017-022>024-027-028-300600-
   Northwest Minnesota

CITY           SKY/WX    TMP DP  RH WIND       PRES   REMARKS
BEMIDJI        PTCLDY    38  28  66 E7        30.24F
HALLOCK        CLOUDY    39  28  65 SE8       30.21S
ROSEAU         MOCLDY    45  28  53 SE9       30.24S
WARROAD        MOCLDY    45  27  49 SE10      30.25S
THIEF RVR FALL CLOUDY    47  26  44 SE5       30.24S
CROOKSTON      CLOUDY    45  34  65 SE7       30.23F
FOSSTON        MOCLDY    39  25  56 CALM      30.23F
DETROIT LAKES  MOCLDY    48  23  37 E5        30.22F
MOORHEAD       CLOUDY    46  30  53 CALM      30.21F
PARK RAPIDS    PTCLDY    45  23  42 SE8       30.23F
MAHNOMEN       FAIR      42  30  62 E6        30.22F
$$
MNZ006-009>011-018-025>026-300600-
   North Central Minnesota

CITY           SKY/WX    TMP DP  RH WIND       PRES   REMARKS
BAUDETTE       MOCLDY    41  20  43 SE8       30.25F
FLAG ISLAND    PTCLDY    45  21  39 SE5       30.24R
INTL FALLS     CLOUDY    35  22  58 SE5       30.28R WCI  31
WASKISH        CLOUDY    43  21  42 E3        30.26F
BIG FORK       MOCLDY    43  21  42 SE5       30.29R
LONGVILLE      CLOUDY    43  19  39 SE6       30.27F
GRAND RAPIDS   MOCLDY    40  17  39 SE3       30.30S
CRANE LAKE     MOCLDY    27  23  86 CALM      30.32R
ORR            CLOUDY    39  16  38 SE6       30.27S
COOK           PTCLDY    37  18  44 SE3       30.30S
WALKER         FAIR      45  25  46 SE7       30.26S
$$
MNZ012-019>021-037-300600-
   Northeast Minnesota

CITY           SKY/WX    TMP DP  RH WIND       PRES   REMARKS
DULUTH         CLOUDY    36  17  46 E5        30.26F
ELY            CLEAR     30  21  69 CALM      30.30F
HIBBING        PTCLDY    33  20  58 NE3       30.29F
EVELETH        PTCLDY    32  16  51 NE5       30.30F WCI  28
DULUTH HARBOR  CLOUDY    39  28  65 NE13      30.30F
TWO HARBORS    CLOUDY    37  19  48 NE5       30.28F
SILVER BAY     PTCLDY    36  19  51 CALM      30.29F
GRAND MARAIS     N/A     30  24  78 N5        30.34F WCI  25
G MARAIS ARPRT CLEAR     27  19  74 N3        30.32F
$$
MNZ029>031-032-039>041-046>048-054>057-064-300600-
   West Central Minnesota

CITY           SKY/WX    TMP DP  RH WIND       PRES   REMARKS
FERGUS FALLS   CLOUDY    46  27  46 CALM      30.20F
WHEATON        CLOUDY    43  27  52 E7        30.22F
MORRIS         CLOUDY    45  27  49 E7        30.21F
ALEXANDRIA     CLOUDY    45  24  43 E7        30.23F
ELBOW LAKE     FAIR      48  28  46 NE7       30.21F
WADENA         PTCLDY    45  25  45 E8        30.23F
GLENWOOD       PTCLDY    43  25  49 E8        30.23S
APPLETON       CLOUDY    48  23  37 E9        30.19F
BENSON         CLOUDY    46  12  25 E5        30.22F
ORTONVILLE     CLOUDY    46  28  49 E7        30.20F
MADISON        CLOUDY    48  27  43 NE12      30.18F
WILLMAR        FAIR      48  21  34 NE12G18   30.20F
$$
MNZ033>034-036-042>043-049>051-058-059-300600-
   Central Minnesota

CITY           SKY/WX    TMP DP  RH WIND       PRES   REMARKS
ST CLOUD       CLOUDY    45  22  40 NE8       30.22S
SAUK CENTRE    FAIR      44  23  43 NE6       30.23S
PAYNESVILLE    CLOUDY    46  18  32 NE8G16    30.21S
AITKIN         CLOUDY    41  19  42 NE3       30.26F
PINE RIVER     PTCLDY    41  25  52 E3        30.30S
BRAINERD       MOCLDY    42  19  39 E3        30.27S
STAPLES        CLOUDY    45  18  33 E6        30.25F
LONG PRAIRIE   FAIR      43  25  49 N6        30.24S
LITTLE FALLS   MOCLDY    43  19  39 CALM      30.25S
LITCHFIELD     CLOUDY    48  28  46 NE9       30.20F
BUFFALO        MOCLDY    46  24  41 NE9       30.21S
MAPLE LAKE     MOCLDY    47  27  46 NE8       30.21S
HUTCHINSON     CLOUDY    47  31  53 NE12      30.18F
$$
MNZ037-044-045-052-053-300600-
   East Central Minnesota

CITY           SKY/WX    TMP DP  RH WIND       PRES   REMARKS
PRINCETON      CLOUDY    46  25  42 NE8       30.24R
MORA           CLOUDY    41  21  45 E6        30.26F
CAMBRIDGE      CLOUDY    46  28  49 NE7       30.21F
RUSH CITY      CLOUDY    42  23  48 NE9       30.24S
MOOSE LAKE     CLOUDY    36  21  55 NE5       30.25F
HINCKLEY       FAIR      41  21  45 NE6       30.25F
CLOQUET        CLOUDY    37  12  35 E5        30.27F
MCGREGOR       CLOUDY    39  23  52 E7        30.27F
$$
MNZ071>073-080-081-089-090-097-098-300600-
   Southwest Minnesota

CITY           SKY/WX    TMP DP  RH WIND       PRES   REMARKS
MONTEVIDEO     CLOUDY    46  23  39 E10       30.18F
GRANITE FALLS  CLOUDY    47  27  44 N8        30.18F
CANBY          CLOUDY    47  26  43 NE10      30.19F
MARSHALL       MOCLDY    46  26  45 NE10      30.16F
REDWOOD FALLS  CLOUDY    48  25  40 VRB6      30.15F
OLIVIA         CLOUDY    46  27  46 NE8       30.15F
PIPESTONE      CLOUDY    46  19  34 NE7       30.13F
WINDOM         CLOUDY    46  27  46 N8        30.12F
WORTHINGTON    CLOUDY    44  27  51 NE13      30.12F
JACKSON        CLOUDY    45  30  57 NE10      30.11F
TRACY          MOCLDY    46  30  54 NE9       30.14F
SLAYTON        CLOUDY    45  25  45 NE10      30.14F
$$
MNZ065>067-074>077-082>085-091>093-300600-
   South Central Minnesota

CITY           SKY/WX    TMP DP  RH WIND       PRES   REMARKS
MANKATO        CLOUDY    48  30  49 NE12      30.12F
NEW ULM        CLOUDY    48  25  40 NE9       30.13F
ST JAMES       CLOUDY    46  30  53 N7        30.14F
FAIRMONT       CLOUDY    46  32  58 NE9       30.11F
GLENCOE        CLOUDY    48  27  43 NE6       30.16F
FARIBAULT      CLOUDY    46  30  53 N8        30.13F
OWATONNA       CLOUDY    46  30  53 NE9       30.11F
WASECA         CLOUDY    45  30  57 NE10      30.12F
ALBERT LEA     CLOUDY    45  30  57 NE10      30.09F
$$
MNZ078>079-086>088-094>096-300600-
   Southeast Minnesota

CITY           SKY/WX    TMP DP  RH WIND       PRES   REMARKS
ROCHESTER      CLOUDY    45  30  55 NE13G22   30.11F
RED WING       CLOUDY    50  23  34 NE7       30.14F
STANTON        CLOUDY    48  32  53 NE12      30.13F
DODGE CENTER   CLOUDY    45  30  57 NE13      30.12F
WINONA         CLOUDY    48  32  53 NE6       30.14F
AUSTIN         CLOUDY    45  30  57 E16G24    30.09F
PRESTON        CLOUDY    43  29  58 NE9       30.09F
$$
ABBREVIATIONS USED IN REMARKS
   TC - TEMPERATURES IN CELSIUS
  WCI - WIND CHILL INDEX
   HX - HEAT INDEX
  VSB - VISIBILITY
$$



USA.gov is the U.S. government's official web portal to all federal, state and local government web resources and services.